| time (UTC) | temp C | wind direction | speed KPH | gust KPH | rain 1hr cm | rain 24hr cm | rain mn cm | humidity % | barometer mb |
| 20260505181508 | 18 | 255 | 30.6 | 46.7 | 0.00 | 0.30 | 0.30 | 67 | 1002.5 |
| 20260505180008 | 18 | 269 | 32.2 | 40.2 | 0.00 | 0.30 | 0.30 | 67 | 1002.5 |
| 20260505174507 | 18 | 257 | 25.7 | 40.2 | 0.00 | 0.30 | 0.30 | 68 | 1002.2 |
| 20260505173007 | 18 | 210 | 20.9 | 41.8 | 0.00 | 0.30 | 0.30 | 68 | 1002.2 |
| 20260505171506 | 17 | 274 | 20.9 | 41.8 | 0.00 | 0.30 | 0.30 | 70 | 1002.4 |
| 20260505170009 | 17 | 275 | 22.5 | 38.6 | 0.00 | 0.30 | 0.30 | 70 | 1002.5 |
| 20260505164503 | 18 | 236 | 30.6 | 57.9 | 0.00 | 0.30 | 0.30 | 68 | 1002.4 |
| 20260505163009 | 18 | 249 | 27.4 | 43.5 | 0.00 | 0.30 | 0.30 | 68 | 1002.3 |
| 20260505161502 | 18 | 246 | 19.3 | 43.5 | 0.00 | 0.30 | 0.30 | 70 | 1001.9 |
| 20260505153100 | 18 | 242 | 24.1 | 41.8 | 0.00 | 0.30 | 0.30 | 68 | 1001.5 |
| 20260505151618 | 18 | 239 | 24.1 | 49.9 | 0.00 | 0.30 | 0.30 | 68 | 1001.6 |
| 20260505124548 | 18 | 172 | 24.1 | 48.3 | 0.00 | 0.30 | 0.30 | 68 | 1000.5 |
| 20260505123040 | 18 | 224 | 17.7 | 40.2 | 0.00 | 0.30 | 0.30 | 71 | 1000.6 |
| 20260505121539 | 17 | 212 | 19.3 | 33.8 | 0.00 | 0.30 | 0.30 | 74 | 1000.7 |
| 20260505120058 | 17 | 214 | 19.3 | 33.8 | 0.00 | 0.36 | 0.30 | 75 | 1000.8 |
| 20260505114533 | 16 | 210 | 16.1 | 32.2 | 0.00 | 0.36 | 0.30 | 76 | 1000.8 |
| 20260505113035 | 16 | 205 | 16.1 | 29.0 | 0.00 | 0.36 | 0.30 | 78 | 1000.8 |
| 20260505111531 | 16 | 157 | 20.9 | 32.2 | 0.00 | 0.36 | 0.30 | 78 | 1000.7 |
| 20260505101528 | 15 | 216 | 12.9 | 24.1 | 0.08 | 0.36 | 0.30 | 85 | 1000.2 |
| 20260505100028 | 15 | 210 | 12.9 | 30.6 | 0.08 | 0.36 | 0.30 | 85 | 1000.6 |
| 20260505094527 | 15 | 228 | 19.3 | 35.4 | 0.08 | 0.36 | 0.30 | 83 | 1000.0 |
| 20260505093024 | 16 | 218 | 16.1 | 32.2 | 0.03 | 0.30 | 0.25 | 77 | 1000.6 |
| 20260505091527 | 16 | 214 | 16.1 | 29.0 | 0.00 | 0.28 | 0.23 | 72 | 1000.7 |
| 20260505090036 | 16 | 211 | 12.9 | 29.0 | 0.00 | 0.28 | 0.23 | 72 | 1000.5 |
| 20260505084518 | 15 | 171 | 12.9 | 25.7 | 0.00 | 0.28 | 0.23 | 73 | 1000.8 |
| 20260505083017 | 15 | 226 | 12.9 | 24.1 | 0.00 | 0.28 | 0.23 | 74 | 1001.1 |
| 20260505081517 | 15 | 163 | 8.0 | 17.7 | 0.00 | 0.28 | 0.23 | 75 | 1001.2 |
| 20260505080016 | 14 | 204 | 9.7 | 24.1 | 0.00 | 0.28 | 0.23 | 76 | 1001.3 |
| 20260505074515 | 13 | 207 | 12.9 | 24.1 | 0.08 | 0.28 | 0.23 | 80 | 1001.3 |
| 20260505073027 | 12 | 210 | 8.0 | 22.5 | 0.23 | 0.28 | 0.23 | 86 | 1001.3 |
| 20260505071518 | 12 | 175 | 8.0 | 16.1 | 0.23 | 0.28 | 0.23 | 90 | 1001.3 |
| 20260505070010 | 12 | 201 | 8.0 | 24.1 | 0.23 | 0.28 | 0.23 | 89 | 1001.3 |
| 20260505064518 | 13 | 214 | 20.9 | 32.2 | 0.13 | 0.18 | 0.13 | 81 | 1001.9 |
| 20260505063002 | 16 | 203 | 11.3 | 22.5 | 0.00 | 0.05 | 0.00 | 59 | 1001.1 |
| 20260505061501 | 16 | 203 | 6.4 | 20.9 | 0.00 | 0.05 | 0.00 | 58 | 1000.8 |
| 20260505060103 | 16 | 213 | 9.7 | 24.1 | 0.00 | 0.05 | 0.00 | 57 | 1001.2 |
| 20260505054625 | 16 | 150 | 12.9 | 25.7 | 0.00 | 0.05 | 0.00 | 56 | 1000.9 |
| 20260505053103 | 15 | 185 | 8.0 | 19.3 | 0.00 | 0.05 | 0.00 | 57 | 1001.3 |
| 20260505051550 | 15 | 199 | 6.4 | 12.9 | 0.00 | 0.05 | 0.00 | 58 | 1001.3 |
| 20260505041545 | 15 | 151 | 4.8 | 8.0 | 0.00 | 0.10 | 0.00 | 58 | 1001.8 |
| 20260505040040 | 15 | 149 | 8.0 | 11.3 | 0.00 | 0.13 | 0.10 | 57 | 1001.9 |
| 20260505034539 | 15 | 154 | 4.8 | 9.7 | 0.00 | 0.13 | 0.10 | 56 | 1001.8 |
| 20260505033037 | 15 | 167 | 4.8 | 12.9 | 0.00 | 0.13 | 0.10 | 56 | 1002.0 |
| 20260505031546 | 16 | 210 | 8.0 | 12.9 | 0.00 | 0.13 | 0.10 | 55 | 1002.1 |
| 20260505030036 | 16 | 151 | 6.4 | 9.7 | 0.00 | 0.13 | 0.10 | 55 | 1002.0 |
| 20260505024538 | 16 | 164 | 9.7 | 16.1 | 0.00 | 0.13 | 0.10 | 55 | 1002.2 |
| 20260505023033 | 15 | 208 | 6.4 | 12.9 | 0.00 | 0.13 | 0.10 | 57 | 1002.3 |
| 20260505021532 | 16 | 151 | 6.4 | 14.5 | 0.00 | 0.13 | 0.10 | 57 | 1002.5 |
| 20260505020034 | 16 | 145 | 4.8 | 12.9 | 0.00 | 0.13 | 0.10 | 57 | 1002.5 |
| 20260505014535 | 16 | 197 | 6.4 | 11.3 | 0.00 | 0.13 | 0.10 | 57 | 1002.5 |
| 20260505013030 | 16 | 173 | 3.2 | 11.3 | 0.00 | 0.13 | 0.10 | 57 | 1002.6 |
| 20260505011534 | 16 | 199 | 4.8 | 9.7 | 0.00 | 0.13 | 0.10 | 58 | 1002.6 |
| 20260505010029 | 16 | 207 | 3.2 | 9.7 | 0.00 | 0.13 | 0.10 | 58 | 1002.8 |
| 20260505004543 | 16 | 146 | 4.8 | 11.3 | 0.00 | 0.13 | 0.10 | 58 | 1002.7 |
| 20260505003031 | 16 | 186 | 4.8 | 14.5 | 0.00 | 0.13 | 0.10 | 58 | 1002.6 |
| 20260505001527 | 17 | 210 | 4.8 | 9.7 | 0.00 | 0.13 | 0.10 | 57 | 1002.5 |
| 20260505000039 | 17 | 161 | 4.8 | 11.3 | 0.00 | 0.13 | 0.10 | 57 | 1002.3 |
| 20260504234525 | 17 | 169 | 4.8 | 9.7 | 0.00 | 0.13 | 0.10 | 57 | 1002.4 |
| 20260504233025 | 18 | 196 | 6.4 | 16.1 | 0.00 | 0.13 | 0.10 | 54 | 1002.2 |
| 20260504231524 | 18 | 222 | 8.0 | 14.5 | 0.00 | 0.13 | 0.10 | 54 | 1002.4 |
| 20260504230023 | 18 | 214 | 6.4 | 17.7 | 0.00 | 0.13 | 0.10 | 53 | 1002.5 |
| 20260504224521 | 18 | 249 | 9.7 | 19.3 | 0.00 | 0.13 | 0.10 | 51 | 1002.4 |
| 20260504223021 | 19 | 232 | 8.0 | 25.7 | 0.00 | 0.13 | 0.10 | 50 | 1002.6 |
| 20260504221520 | 20 | 231 | 14.5 | 22.5 | 0.00 | 0.13 | 0.10 | 48 | 1002.7 |
| 20260504220019 | 20 | 231 | 17.7 | 33.8 | 0.00 | 0.13 | 0.10 | 48 | 1002.7 |
| 20260504214519 | 20 | 215 | 16.1 | 35.4 | 0.00 | 0.13 | 0.10 | 48 | 1002.8 |
| 20260504213017 | 20 | 257 | 20.9 | 33.8 | 0.00 | 0.13 | 0.10 | 49 | 1002.8 |
| 20260504211518 | 20 | 207 | 16.1 | 33.8 | 0.00 | 0.13 | 0.10 | 50 | 1002.9 |
| 20260504210021 | 20 | 226 | 17.7 | 30.6 | 0.00 | 0.13 | 0.10 | 49 | 1002.9 |
| 20260504204512 | 20 | 248 | 20.9 | 35.4 | 0.00 | 0.13 | 0.10 | 49 | 1003.3 |
| 20260504203010 | 20 | 229 | 22.5 | 33.8 | 0.00 | 0.13 | 0.10 | 50 | 1003.2 |
| 20260504201508 | 19 | 216 | 14.5 | 43.5 | 0.00 | 0.13 | 0.10 | 50 | 1003.4 |
| 20260504200009 | 18 | 247 | 25.7 | 41.8 | 0.00 | 0.13 | 0.10 | 50 | 1003.5 |
| 20260504194504 | 18 | 241 | 22.5 | 37.0 | 0.00 | 0.13 | 0.10 | 50 | 1003.7 |
| 20260504193002 | 18 | 259 | 20.9 | 40.2 | 0.00 | 0.13 | 0.10 | 51 | 1003.9 |
| 20260504191608 | 18 | 264 | 22.5 | 32.2 | 0.00 | 0.13 | 0.10 | 50 | 1003.9 |
| 20260504190121 | 18 | 224 | 16.1 | 32.2 | 0.00 | 0.13 | 0.10 | 52 | 1004.2 |
| 20260504184555 | 18 | 253 | 20.9 | 41.8 | 0.00 | 0.13 | 0.10 | 51 | 1004.3 |
| 20260504183152 | 17 | 238 | 27.4 | 48.3 | 0.00 | 0.13 | 0.10 | 52 | 1004.4 |
| 20260504181555 | 17 | 234 | 22.5 | 33.8 | 0.00 | 0.13 | 0.10 | 52 | 1004.4 |